Location: Quaker Farms
(41.4276°N, 73.1557°W)
Time: 23:30:58
(UTC+00:00)

Vanguard 1 - Pass Details

Date: 21 June 2021
Orbit: 651 x 3832 km, 34.2° (Epoch: 26 July)

Event Time Altitude Azimuth Distance (km) Brightness Sun altitude
Rises 04:52:32 0° 268° (W) 7,897 14.7 -25.1°
Reaches altitude 10° 04:58:18 10° 267° (W) 6,681 14.2 -25.1°
Maximum altitude 05:18:19 64° 192° (SSW) 2,762 11.9 -24.9°
Drops below altitude 10° 05:29:34 10° 114° (ESE) 3,997 13.0 -24.6°
Sets 05:32:07 0° 111° (ESE) 4,672 13.4 -24.5°
